KB3HHA-13 Weather Reports


Display with metric or nautical units.
time (UTC)temp
F
wind
direction
speed
MPH
gust
MPH
rain 1hr
in
rain 24hr
in
rain mn
in
humidity
%
barometer
mb
20260510033201 55 45 0.0 0.0 0.00 0.00 0.00 90 1010.0
20260510032700 56 45 0.0 0.0 0.00 0.00 0.00 90 1010.0
20260510032200 56 45 0.0 0.0 0.00 0.00 0.00 90 1010.0
20260510031701 56 45 0.0 0.0 0.00 0.00 0.00 90 1010.0
20260510031200 56 45 0.0 0.0 0.00 0.00 0.00 90 1009.9
20260510030702 56 45 0.0 0.0 0.00 0.00 0.00 90 1010.0
20260510030200 56 45 0.0 0.0 0.00 0.00 0.00 89 1010.0
20260510025700 56 45 0.0 0.0 0.00 0.00 0.00 89 1010.0
20260510025202 56 45 0.0 0.0 0.00 0.00 0.00 89 1010.0
20260510024700 56 45 0.0 0.0 0.00 0.00 0.00 88 1009.9
20260510024201 57 45 0.0 0.0 0.00 0.00 0.00 88 1010.0
20260510023701 57 45 0.0 0.0 0.00 0.00 0.00 88 1009.8
20260510023201 57 45 0.0 0.0 0.00 0.00 0.00 87 1009.8
20260510022700 57 45 0.0 0.0 0.00 0.00 0.00 87 1009.8
20260510022200 57 45 0.0 0.0 0.00 0.00 0.00 87 1009.6
20260510021701 58 45 0.0 0.0 0.00 0.00 0.00 86 1009.7
20260510021201 58 45 0.0 0.0 0.00 0.00 0.00 86 1009.7
20260510020700 58 45 0.0 0.0 0.00 0.00 0.00 86 1009.6
20260510020201 58 45 0.0 0.0 0.00 0.00 0.00 85 1009.7
20260510015701 59 45 0.0 0.0 0.00 0.00 0.00 85 1009.5
20260510015200 59 45 0.0 0.0 0.00 0.00 0.00 84 1009.5
20260510014701 59 45 0.0 0.0 0.00 0.00 0.00 84 1009.5
20260510014200 59 45 0.0 0.0 0.00 0.00 0.00 84 1009.5
20260510013701 60 45 0.0 0.0 0.00 0.00 0.00 83 1009.5
20260510013202 60 45 0.0 0.0 0.00 0.00 0.00 83 1009.4
20260510012702 60 45 0.0 0.0 0.00 0.00 0.00 82 1009.3
20260510012200 61 45 0.0 0.0 0.00 0.00 0.00 82 1009.2
20260510011702 61 45 0.0 0.0 0.00 0.00 0.00 82 1009.0
20260510011200 61 45 0.0 0.0 0.00 0.00 0.00 81 1009.0
20260510010700 62 45 0.0 0.0 0.00 0.00 0.00 81 1008.9
20260510010200 62 45 0.0 0.0 0.00 0.00 0.00 80 1008.8
20260510005701 63 45 0.0 0.0 0.00 0.00 0.00 79 1008.7
20260510005201 63 45 0.0 0.0 0.00 0.00 0.00 79 1008.7
20260510004701 64 45 0.0 0.0 0.00 0.00 0.00 78 1008.6
20260510004200 64 45 0.0 0.0 0.00 0.00 0.00 78 1008.6
20260510003700 65 45 0.0 0.0 0.00 0.00 0.00 77 1008.5
20260510003200 65 45 0.0 0.0 0.00 0.00 0.00 77 1008.6
20260510002700 66 45 0.0 0.0 0.00 0.00 0.00 76 1008.5
20260510002200 66 45 0.0 0.0 0.00 0.00 0.00 75 1008.5
20260510001701 67 45 0.0 0.0 0.00 0.00 0.00 75 1008.5
20260510001201 67 45 0.0 0.0 0.00 0.00 0.00 75 1008.4
20260510000701 68 45 0.0 0.0 0.00 0.00 0.00 74 1008.4
20260510000200 68 45 0.0 0.0 0.00 0.00 0.00 72 1008.4
20260509235700 68 45 0.0 0.0 0.00 0.00 0.00 71 1008.3
20260509235200 69 45 0.0 0.0 0.00 0.00 0.00 69 1008.3
20260509234700 69 45 0.0 0.0 0.00 0.00 0.00 68 1008.3
20260509234201 69 45 0.0 0.0 0.00 0.00 0.00 69 1008.2
20260509233701 70 45 0.0 0.0 0.00 0.00 0.00 68 1008.2
20260509233201 70 45 0.0 0.0 0.00 0.00 0.00 67 1008.1
20260509232700 70 45 0.0 0.0 0.00 0.00 0.00 67 1008.1
20260509232202 70 45 0.0 0.0 0.00 0.00 0.00 67 1008.1
20260509231703 70 45 0.0 0.0 0.00 0.00 0.00 66 1008.0
20260509231200 70 45 0.0 0.0 0.00 0.00 0.00 64 1008.0
20260509230700 70 45 0.0 0.0 0.00 0.00 0.00 64 1008.1
20260509230200 70 45 0.0 0.0 0.00 0.00 0.00 64 1008.1
20260509225703 70 45 0.0 0.0 0.00 0.00 0.00 60 1008.1
20260509225201 70 45 0.0 0.0 0.00 0.00 0.00 63 1008.1
20260509224700 70 45 0.0 0.0 0.00 0.00 0.00 63 1008.2
20260509224200 70 45 0.0 0.0 0.00 0.00 0.00 62 1008.1
20260509223700 70 45 0.0 0.0 0.00 0.00 0.00 61 1008.1
20260509223202 71 45 0.0 0.0 0.00 0.00 0.00 58 1008.1
20260509222701 71 45 0.0 0.0 0.00 0.00 0.00 57 1008.1
20260509222202 71 45 0.0 0.0 0.00 0.00 0.00 56 1008.1
20260509221700 71 45 0.0 0.0 0.00 0.00 0.00 55 1008.2
20260509221201 72 45 0.0 0.0 0.00 0.00 0.00 54 1008.1
20260509220701 72 45 0.0 0.0 0.00 0.00 0.00 53 1008.1
20260509220202 72 45 0.0 0.0 0.00 0.00 0.00 54 1008.1
20260509215700 72 45 0.0 0.0 0.00 0.00 0.00 52 1008.1
20260509215200 72 45 0.0 0.0 0.00 0.00 0.00 52 1008.1
20260509214700 73 45 0.0 0.0 0.00 0.00 0.00 53 1008.1
20260509214202 73 22 0.0 0.0 0.00 0.00 0.00 53 1008.1
20260509213702 73 22 0.0 2.0 0.00 0.00 0.00 51 1008.0
20260509213202 73 67 0.0 2.0 0.00 0.00 0.00 52 1008.2
20260509212701 73 67 0.0 2.0 0.00 0.00 0.00 51 1008.2
20260509212200 73 67 0.0 3.0 0.00 0.00 0.00 54 1008.1
20260509211700 73 90 1.0 6.0 0.00 0.00 0.00 52 1008.1
20260509211202 73 67 2.0 6.0 0.00 0.00 0.00 53 1008.1
20260509210700 73 90 0.0 4.0 0.00 0.00 0.00 52 1008.1
20260509210201 73 90 2.0 4.0 0.00 0.00 0.00 53 1008.1
20260509205702 73 67 0.0 6.0 0.00 0.00 0.00 54 1008.1
20260509205200 73 90 1.0 6.0 0.00 0.00 0.00 53 1008.1
20260509204700 73 90 1.0 5.0 0.00 0.00 0.00 54 1008.2
20260509204202 73 202 1.0 3.0 0.00 0.00 0.00 55 1008.1
20260509203701 73 202 0.0 3.0 0.00 0.00 0.00 53 1008.1
20260509203201 73 45 1.0 3.0 0.00 0.00 0.00 53 1008.1
20260509202701 73 67 0.0 6.0 0.00 0.00 0.00 54 1008.1
20260509202201 74 67 1.0 7.0 0.00 0.00 0.00 53 1008.0
20260509201702 74 112 1.0 7.0 0.00 0.00 0.00 52 1008.0
20260509201200 74 67 3.0 5.0 0.00 0.00 0.00 52 1008.1
20260509200700 74 90 2.0 6.0 0.00 0.00 0.00 52 1008.1
20260509200201 74 45 3.0 6.0 0.00 0.00 0.00 56 1008.2
20260509195700 74 67 0.0 4.0 0.00 0.00 0.00 55 1008.2
20260509195200 74 90 1.0 5.0 0.00 0.00 0.00 55 1008.2
20260509194700 73 67 1.0 7.0 0.00 0.00 0.00 56 1008.2
20260509194200 73 90 2.0 7.0 0.00 0.00 0.00 54 1008.4
20260509193700 73 67 2.0 5.0 0.00 0.00 0.00 53 1008.5
20260509193200 73 112 1.0 5.0 0.00 0.00 0.00 54 1008.5
20260509192700 73 112 3.0 5.0 0.00 0.00 0.00 54 1008.7
20260509192202 73 67 1.0 4.0 0.00 0.00 0.00 55 1008.6
20260509191701 72 22 0.0 3.0 0.00 0.00 0.00 56 1008.7
20260509191200 72 90 0.0 5.0 0.00 0.00 0.00 56 1008.9
20260509190701 72 90 0.0 5.0 0.00 0.00 0.00 53 1009.0
20260509190201 72 67 1.0 5.0 0.00 0.00 0.00 54 1009.1
20260509185700 72 45 0.0 3.0 0.00 0.00 0.00 55 1009.0
20260509185201 72 0 1.0 4.0 0.00 0.00 0.00 54 1008.9
20260509184701 72 90 0.0 4.0 0.00 0.00 0.00 55 1008.9
20260509184202 71 45 0.0 4.0 0.00 0.00 0.00 58 1009.1
20260509183701 71 67 0.0 4.0 0.00 0.00 0.00 58 1009.3
20260509183202 70 22 0.0 4.0 0.00 0.00 0.00 57 1009.3
20260509182702 69 45 0.0 3.0 0.00 0.00 0.00 61 1009.3
20260509182201 69 22 1.0 3.0 0.00 0.00 0.00 61 1009.4
20260509181700 69 45 0.0 0.0 0.00 0.00 0.00 60 1009.4
20260509181200 68 45 0.0 0.0 0.00 0.00 0.00 61 1009.4
20260509180701 68 45 0.0 0.0 0.00 0.00 0.00 59 1009.6
20260509180200 67 67 0.0 0.0 0.00 0.00 0.00 59 1009.9
20260509175700 67 45 0.0 0.0 0.00 0.00 0.00 61 1010.1
20260509175201 67 45 0.0 0.0 0.00 0.00 0.00 61 1010.3
20260509174700 67 22 0.0 0.0 0.00 0.00 0.00 60 1010.2
20260509174200 67 0 0.0 0.0 0.00 0.00 0.00 59 1010.2
20260509173700 68 0 0.0 1.0 0.00 0.00 0.00 58 1010.2
20260509173202 68 45 0.0 3.0 0.00 0.00 0.00 57 1010.2
20260509172700 68 45 0.0 3.0 0.00 0.00 0.00 58 1010.3
20260509172201 67 0 1.0 3.0 0.00 0.00 0.00 59 1010.5
20260509171702 67 90 0.0 3.0 0.00 0.00 0.00 59 1010.6
20260509171201 67 67 2.0 3.0 0.00 0.00 0.00 57 1010.6
20260509170700 67 67 0.0 0.0 0.00 0.00 0.00 57 1010.6
20260509170201 67 45 0.0 0.0 0.00 0.00 0.00 58 1010.6
20260509165700 67 45 0.0 1.0 0.00 0.00 0.00 57 1010.7
20260509165200 67 90 0.0 3.0 0.00 0.00 0.00 57 1010.7
20260509164702 67 67 1.0 3.0 0.00 0.00 0.00 56 1010.7
20260509164201 67 67 1.0 3.0 0.00 0.00 0.00 56 1010.7
20260509163700 67 90 0.0 4.0 0.00 0.00 0.00 56 1010.6
20260509163200 67 45 1.0 4.0 0.00 0.00 0.00 58 1010.6
20260509162700 67 45 0.0 2.0 0.00 0.00 0.00 59 1010.6
20260509162202 66 90 0.0 2.0 0.00 0.00 0.00 57 1010.7
20260509161702 66 67 0.0 2.0 0.00 0.00 0.00 56 1010.8
20260509161201 67 90 0.0 2.0 0.00 0.00 0.00 56 1010.8
20260509160700 67 67 0.0 3.0 0.00 0.00 0.00 56 1010.8
20260509160200 67 67 0.0 3.0 0.00 0.00 0.00 56 1010.7
20260509155702 66 45 0.0 1.0 0.00 0.00 0.00 58 1010.8
20260509155202 66 45 0.0 2.0 0.00 0.00 0.00 58 1010.7
20260509154701 66 22 0.0 3.0 0.00 0.00 0.00 58 1010.8
20260509154201 65 45 1.0 3.0 0.00 0.00 0.00 60 1010.8
20260509153701 65 67 0.0 2.0 0.00 0.00 0.00 59 1010.8
20260509153200 64 45 0.0 2.0 0.00 0.00 0.00 59 1011.0
20260509152702 64 45 1.0 2.0 0.00 0.00 0.00 60 1010.9
20260509152201 64 90 0.0 4.0 0.00 0.00 0.00 59 1011.0
20260509151701 64 67 1.0 5.0 0.00 0.00 0.00 59 1010.9
20260509151200 63 67 1.0 5.0 0.00 0.00 0.00 61 1011.0
20260509150700 63 90 0.0 2.0 0.00 0.00 0.00 61 1010.9
20260509150200 63 67 0.0 3.0 0.00 0.00 0.00 61 1011.0
20260509145701 63 67 1.0 3.0 0.00 0.00 0.00 62 1011.1
20260509145202 62 67 0.0 4.0 0.00 0.00 0.00 61 1011.3
20260509144701 62 90 1.0 4.0 0.00 0.00 0.00 62 1011.2
20260509144200 62 112 0.0 4.0 0.00 0.00 0.00 62 1011.4
20260509143700 62 67 1.0 4.0 0.00 0.00 0.00 62 1011.4
20260509143201 62 45 0.0 4.0 0.00 0.00 0.00 62 1011.3
20260509142700 62 45 1.0 5.0 0.00 0.00 0.00 63 1011.4
20260509142201 61 67 1.0 5.0 0.00 0.00 0.00 64 1011.5
20260509141700 61 45 0.0 1.0 0.00 0.00 0.00 63 1011.6
20260509141201 61 45 0.0 1.0 0.00 0.00 0.00 64 1011.4
20260509140701 61 45 0.0 1.0 0.00 0.00 0.00 64 1011.2
20260509140201 61 67 0.0 1.0 0.00 0.00 0.00 63 1011.2
20260509135700 61 67 0.0 1.0 0.00 0.00 0.00 64 1011.1
20260509135200 61 90 0.0 1.0 0.00 0.00 0.00 63 1011.2
20260509134703 61 90 0.0 2.0 0.00 0.00 0.00 62 1011.3
20260509134202 61 90 1.0 2.0 0.00 0.00 0.00 61 1011.3
20260509133700 61 67 1.0 2.0 0.00 0.00 0.00 62 1011.4
20260509133200 61 67 0.0 3.0 0.00 0.00 0.00 63 1011.4
20260509132700 61 67 0.0 3.0 0.00 0.00 0.00 62 1011.4
20260509132201 60 90 1.0 3.0 0.00 0.00 0.00 64 1011.4
20260509131700 60 67 0.0 3.0 0.00 0.00 0.00 62 1011.3
20260509131201 60 67 1.0 3.0 0.00 0.00 0.00 63 1011.4
20260509130701 60 67 1.0 2.0 0.00 0.00 0.00 63 1011.4
20260509130200 60 90 0.0 1.0 0.00 0.00 0.00 64 1011.4
20260509125700 60 90 0.0 1.0 0.00 0.00 0.00 65 1011.4
20260509125200 60 67 0.0 2.0 0.00 0.00 0.00 64 1011.4
20260509124701 59 90 0.0 2.0 0.00 0.00 0.00 64 1011.4
20260509124201 59 90 0.0 3.0 0.00 0.00 0.00 65 1011.4
20260509123701 59 67 0.0 3.0 0.00 0.00 0.00 65 1011.3
20260509123200 59 67 1.0 2.0 0.00 0.00 0.00 68 1011.3
20260509122700 58 67 0.0 1.0 0.00 0.00 0.00 71 1011.3
20260509122200 58 45 0.0 2.0 0.00 0.00 0.00 73 1011.4
20260509121702 57 45 0.0 2.0 0.00 0.00 0.00 75 1011.5
20260509121201 57 45 0.0 0.0 0.00 0.00 0.00 74 1011.5
20260509120700 57 67 0.0 0.0 0.00 0.00 0.00 80 1011.5
20260509120201 56 90 0.0 0.0 0.00 0.00 0.00 81 1011.5
20260509115701 56 90 0.0 0.0 0.00 0.00 0.00 80 1011.3
20260509115201 56 90 0.0 0.0 0.00 0.00 0.00 79 1011.3
20260509114700 56 90 0.0 0.0 0.00 0.00 0.00 79 1011.1
20260509114201 55 90 0.0 0.0 0.00 0.00 0.00 79 1011.1
20260509113702 55 90 0.0 0.0 0.00 0.00 0.00 79 1011.1
20260509113201 55 90 0.0 0.0 0.00 0.00 0.00 80 1011.1
20260509112700 54 67 0.0 0.0 0.00 0.00 0.00 79 1011.0
20260509112201 54 45 0.0 0.0 0.00 0.00 0.00 83 1010.9
20260509111700 54 45 0.0 0.0 0.00 0.00 0.00 84 1010.8
20260509111200 53 45 0.0 0.0 0.00 0.00 0.00 83 1010.8
20260509110704 53 45 0.0 0.0 0.00 0.00 0.00 84 1010.8
20260509110201 53 45 0.0 0.0 0.00 0.00 0.00 85 1010.9
20260509105703 53 45 0.0 0.0 0.00 0.00 0.00 85 1010.9
20260509105200 53 45 0.0 0.0 0.00 0.00 0.00 84 1010.8
20260509104701 53 45 0.0 0.0 0.00 0.00 0.00 83 1010.7
20260509104201 53 45 0.0 0.0 0.00 0.00 0.00 83 1010.7
20260509103700 53 45 0.0 0.0 0.00 0.00 0.00 83 1010.5
20260509103201 53 45 0.0 0.0 0.00 0.00 0.00 82 1010.5
20260509102701 53 45 0.0 0.0 0.00 0.00 0.00 82 1010.5
20260509102201 53 45 0.0 0.0 0.00 0.00 0.00 82 1010.4
20260509101700 52 45 0.0 0.0 0.00 0.00 0.00 80 1010.5
20260509101202 52 45 0.0 0.0 0.00 0.00 0.00 81 1010.6
20260509100701 52 45 0.0 0.0 0.00 0.00 0.00 81 1010.5
20260509100201 52 45 0.0 0.0 0.00 0.00 0.00 81 1010.6
20260509095700 52 45 0.0 0.0 0.00 0.00 0.00 80 1010.4
20260509095200 52 45 0.0 0.0 0.00 0.00 0.00 81 1010.4
20260509094700 52 45 0.0 0.0 0.00 0.00 0.00 81 1010.4
20260509094200 52 45 0.0 0.0 0.00 0.00 0.00 81 1010.5
20260509093700 52 45 0.0 0.0 0.00 0.00 0.00 81 1010.6
20260509093201 52 45 0.0 0.0 0.00 0.00 0.00 82 1010.6
20260509092700 52 45 0.0 0.0 0.00 0.00 0.00 82 1010.7
20260509092201 52 45 0.0 0.0 0.00 0.00 0.00 81 1010.8
20260509091701 52 45 0.0 0.0 0.00 0.00 0.00 81 1010.8
20260509091200 52 45 0.0 0.0 0.00 0.00 0.00 81 1010.8
20260509090700 52 45 0.0 0.0 0.00 0.00 0.00 81 1010.8
20260509090202 53 45 0.0 0.0 0.00 0.00 0.00 82 1010.8
20260509085700 53 45 0.0 0.0 0.00 0.00 0.00 81 1010.9
20260509085201 53 45 0.0 0.0 0.00 0.00 0.00 81 1011.0
20260509084701 52 45 0.0 0.0 0.00 0.00 0.00 80 1011.0
20260509084201 52 45 0.0 0.0 0.00 0.00 0.00 81 1011.0
20260509083700 52 45 0.0 0.0 0.00 0.00 0.00 82 1011.0
20260509083200 52 45 0.0 0.0 0.00 0.00 0.00 83 1011.1
20260509082701 51 45 0.0 0.0 0.00 0.00 0.00 84 1011.0
20260509082203 51 45 0.0 0.0 0.00 0.00 0.00 85 1011.1
20260509081700 51 45 0.0 0.0 0.00 0.00 0.00 86 1011.2
20260509081200 51 45 0.0 0.0 0.00 0.00 0.00 86 1011.2
20260509080702 51 45 0.0 0.0 0.00 0.00 0.00 87 1011.2
20260509080201 51 45 0.0 0.0 0.00 0.00 0.00 87 1011.3
20260509075700 50 45 0.0 0.0 0.00 0.00 0.00 87 1011.4
20260509075200 50 45 0.0 0.0 0.00 0.00 0.00 87 1011.4
20260509074700 50 45 0.0 0.0 0.00 0.00 0.00 88 1011.3
20260509074201 50 45 0.0 0.0 0.00 0.00 0.00 88 1011.3
20260509073701 50 45 0.0 0.0 0.00 0.00 0.00 88 1011.4
20260509073200 50 45 0.0 0.0 0.00 0.00 0.00 88 1011.4
20260509072703 50 45 0.0 0.0 0.00 0.00 0.00 88 1011.4
20260509072200 50 45 0.0 0.0 0.00 0.00 0.00 88 1011.4
20260509071701 50 45 0.0 0.0 0.00 0.00 0.00 88 1011.3
20260509071201 49 45 0.0 0.0 0.00 0.00 0.00 89 1011.3
20260509070700 49 45 0.0 0.0 0.00 0.00 0.00 89 1011.3
20260509070201 49 45 0.0 0.0 0.00 0.00 0.00 89 1011.3
20260509065701 49 45 0.0 0.0 0.00 0.00 0.00 89 1011.3
20260509065200 49 45 0.0 0.0 0.00 0.00 0.00 89 1011.4
20260509064701 49 45 0.0 0.0 0.00 0.00 0.00 89 1011.3
20260509064203 49 45 0.0 0.0 0.00 0.00 0.00 89 1011.3
20260509063702 49 45 0.0 0.0 0.00 0.00 0.00 89 1011.4
20260509063201 49 45 0.0 0.0 0.00 0.00 0.00 89 1011.5
20260509062701 49 45 0.0 0.0 0.00 0.00 0.00 89 1011.5
20260509062201 48 45 0.0 0.0 0.00 0.00 0.00 89 1011.5
20260509061700 48 45 0.0 0.0 0.00 0.00 0.00 89 1011.6
20260509061200 48 45 0.0 0.0 0.00 0.00 0.00 89 1011.6
20260509060700 48 45 0.0 0.0 0.00 0.00 0.00 89 1011.6
20260509060201 48 45 0.0 0.0 0.00 0.00 0.00 89 1011.7
20260509055702 48 45 0.0 0.0 0.00 0.00 0.00 88 1011.7
20260509055200 48 45 0.0 0.0 0.00 0.00 0.00 88 1011.7
20260509054701 48 45 0.0 0.0 0.00 0.00 0.00 88 1011.7
20260509054202 48 45 0.0 0.0 0.00 0.00 0.00 88 1011.7
20260509053700 48 45 0.0 0.0 0.00 0.00 0.00 88 1011.7
20260509053201 48 45 0.0 0.0 0.00 0.00 0.00 88 1011.8
20260509052700 49 45 0.0 0.0 0.00 0.00 0.00 88 1011.8
20260509052200 49 45 0.0 0.0 0.00 0.00 0.00 88 1011.8
20260509051700 49 45 0.0 0.0 0.00 0.00 0.00 88 1011.8
20260509051200 48 45 0.0 0.0 0.00 0.00 0.00 88 1011.8
20260509050702 48 45 0.0 0.0 0.00 0.00 0.00 88 1011.8
20260509050202 48 45 0.0 0.0 0.00 0.00 0.00 88 1011.8
20260509045703 48 45 0.0 0.0 0.00 0.00 0.00 88 1011.7
20260509045202 48 45 0.0 0.0 0.00 0.00 0.00 88 1011.7
20260509044701 48 45 0.0 0.0 0.00 0.00 0.00 88 1011.7
20260509044200 48 45 0.0 0.0 0.00 0.00 0.00 87 1011.7
20260509043700 48 45 0.0 0.0 0.00 0.00 0.00 87 1011.7
20260509043201 48 45 0.0 0.0 0.00 0.00 0.00 87 1011.8
20260509042700 49 45 0.0 0.0 0.00 0.00 0.00 87 1011.8
20260509042200 49 45 0.0 0.0 0.00 0.00 0.00 86 1011.8
20260509041702 49 45 0.0 0.0 0.00 0.00 0.00 86 1011.8
20260509041202 49 45 0.0 0.0 0.00 0.00 0.00 85 1011.9
20260509040703 49 45 0.0 0.0 0.00 0.00 0.00 85 1011.9
20260509040200 49 45 0.0 0.0 0.00 0.00 0.00 85 1011.9
20260509035700 49 45 0.0 0.0 0.00 0.00 0.00 85 1011.9
20260509035202 49 45 0.0 0.0 0.00 0.00 0.00 85 1011.9
20260509034700 50 45 0.0 0.0 0.00 0.00 0.00 85 1011.9
20260509034200 50 45 0.0 0.0 0.00 0.00 0.00 84 1012.0
20260509033701 50 45 0.0 0.0 0.00 0.00 0.00 84 1012.0